Regional Weather Roundup
Issued by NWS Kansas City/Pleasant Hill, MO

Home | Current Version | Previous Version | Text Only | Print | Product List | Glossary On
Versions: 1 2 3 4 5 6 7 8 9 10 11 12 13 14 15 16 17 18 19 20 21 22 23 24 25 26 27 28 29 30 31 32 33 34 35 36 37 38 39 40 41 42 43 44 45 46 47 48 49 50
000
ASUS43 KEAX 040711
RWREAX

WEATHER ROUNDUP FOR EASTERN KANSAS AND NORTHWEST MISSOURI
NATIONAL WEATHER SERVICE KANSAS CITY/PLEASANT HILL MO
100 AM CST WED MAR 04 2015

KSZ040-057-103>105-MOZ028-029-037-043-040800-
...KANSAS CITY METROPOLITAN AREA...

CITY           SKY/WX    TMP DP  RH WIND       PRES   REMARKS
K.C. INTL      CLOUDY    24  15  68 N14       30.09R WCI  12
K.C. DOWNTOWN  PTCLDY    29  18  63 N14       30.10R WCI  18
LEES SUMMIT    CLOUDY    29  19  66 N10       30.08R WCI  20
OLATHE - IXD   PTCLDY    27  20  75 N13       30.07R WCI  16
OLATHE - OJC   MOCLDY    29  18  63 N13       30.06R WCI  19
LAWRENCE       PTCLDY    26  16  65 N14       30.11R WCI  14

$$

MOZ001>008-011>017-020>025-030>033-038>040-044>046-053-054-040800-
...NORTHERN AND CENTRAL MISSOURI...

CITY           SKY/WX    TMP DP  RH WIND       PRES   REMARKS
ST. JOSEPH     PTCLDY    20  10  65 N21       30.14R WCI   4
MOSBY          CLOUDY    28  19  69 N13       30.10R WCI  18
WARRENSBURG    CLOUDY    32  27  80 NW9       30.05R WCI  24
WHITEMAN AFB   CLOUDY    31  26  79 N10       30.03R WCI  23
CLINTON        CLOUDY    34  32  93 N12       30.03R WCI  25
SEDALIA        CLOUDY    33  27  78 N12       30.02R WCI  24
WARSAW         NOT AVBL
MARSHALL       CLOUDY    34  28  80 N13G18    30.02  WCI  25
CHILLICOTHE      N/A     27  17  66 N10G20    30.07R WCI  17
MOBERLY        CLOUDY    32  23  69 N13       30.02  WCI  22
KIRKSVILLE     NOT AVBL

$$

MOZ041-047>049-056>058-063>065-088>090-097-040800-
...EASTERN AND SOUTHERN MISSOURI...

CITY           SKY/WX    TMP DP  RH WIND       PRES   REMARKS
ST. LOUIS INTL LGT RAIN  36  30  79 N5        29.98R WCI  32
SPIRIT OF STL  CLOUDY    35  33  92 NW6       29.97R WCI  30
COLUMBIA       CLOUDY    34  29  82 N7        29.99R WCI  28
JEFFERSON CITY CLOUDY    36  29  75 NW5       30.01R WCI  32
MEXICO         CLOUDY    36  32  87 N9        29.99R WCI  29
HANNIBAL       CLOUDY    30  18  59 N10       30.01R WCI  21
ROLLA          LGT RAIN  33  31  92 N8        29.94R FOG     WCI  26
OSAGE BEACH    CLOUDY    34  30  86 CALM      29.97F
SPRINGFIELD    CLOUDY    37  34  89 N15       29.93S FOG     WCI  28
BRANSON        LGT RAIN  43  41  93 CALM      29.89F VSB 1/4
NEVADA         CLOUDY    34  30  86 N10       30.02R WCI  26
JOPLIN         CLOUDY    36  31  82 N10       29.96S WCI  28
WEST PLAINS    LGT RAIN  40  39  97 NE3       29.90R FOG

$$

IAZ060-094-KSZ022-034>040-054-083-096-NEZ052-066-093-040800-
...KANSAS...SOUTHEAST NEBRASKA AND IOWA...

CITY           SKY/WX    TMP DP  RH WIND       PRES   REMARKS
TOPEKA         PTCLDY    25  11  55 N16G25    30.13R WCI  12
MANHATTAN      CLOUDY    24   9  52 N13G20    30.15R WCI  12
EMPORIA        CLOUDY    29  19  66 N16G22    30.05S WCI  17
CHANUTE        CLOUDY    33  26  75 N16       30.01R WCI  23
WICHITA        CLOUDY    32  19  58 N17G23    30.04R WCI  21
OMAHA          CLOUDY    18   5  57 N16G26    30.17R WCI   3
LINCOLN        LGT SNOW  19  11  70 N16       30.20R WCI   4
FALLS CITY     PTCLDY    19   6  57 N13       30.16R WCI   6
LAMONI         PTCLDY    16   8  71 N15       30.09R WCI   1
DES MOINES     MOCLDY    15   5  64 NW17G24   30.12R WCI  -1

$$




USA.gov is the U.S. government's official web portal to all federal, state and local government web resources and services.